Showing default

DASH 1, 589

Orbit data source: Space-Track

DASH 1, 589 is an American payload satellite in LEO that was launched on Thu, 09 May 1963 UTC via an ATLAS AGENA B launch vehicle from the Air Force Western Test Range (AFWTR). Payload-class satellites include a variety of spacecraft equipped with specific instruments for various scientific and technological missions. These include communications satellites like Starlink; space stations such as the ISS; scientific satellites like the Hubble; Earth observation satellites from companies like Planet Labs, Umbra, and HawkEye 360; GPS; miniature CubeSats for education and research; and military/defense satellites.

Loading next visibility...
Identifier
589, 1963-014D
Orbit
LEO
Last TLE update
1 day ago
Origin
Manufacturer
MITLL?
Mission
Defense Calibration
Bus & Motor
DASH, Unknown motor
Mass
1 kg wet, 1 kg dry
Launch date (UTC)
Icon of a cake. It is the launch day of the satellite!1963-05-09 (62 years ago)
Launch vehicle
ATLAS AGENA B
Launch site
Air Force Western Test Range (AFWTR)
Object type
Payload
Rocket body
Debris
Shape & HBR
Sphere, Unknown HBR
Radar Cross Section
4.524 m², Large (>1 m²)

Expand to show TLE details & history

TLE from 1 day ago
0 DASH 1
1 00589U 63014D   25128.20005058 -.00000074  00000-0 -35659-1 0  9996
2 00589  87.3312 228.9440 0096739  39.1377 321.6426  8.65627776958775
Epoch: 2025-05-08T04:48Z
Definitive object data (Epoch: 2025-05-08T04:48:04.37Z)
Latitude
0.00003°
Longitude
-69.34817°
Altitude
3,567.939 km
Speed
6.355 km/s
True Right ascension
15h 15m 46s
True Declination
0° 00' 00"
Sunlit
Object was in full shadow at TLE epoch
Visualization TLE readout
Latitude
-64.30843°
Longitude
-74.98378°
Altitude
3,685.825 km
Speed
6.288 km/s
Apparent Right ascension
21h 14m 03s
Apparent Declination
-81° 57' 59"
Sunlit
Object is in daylight
Visualization observer readout
Local Sidereal Time
13:24:47
Azimuth
170.192° S
Elevation
-43.2°
Doppler factor
1
Orbital elements
Apogee altitude
3,736.131 km
Perigee altitude
3,542.317 km
Semi-major axis
10,017.361 km
Eccentricity
0.0096739
Inclination
87.3312°
RAAN
228.944°
Arg. of periapsis
39.1377°
True anomaly
320.94811°
Mean anomaly
321.6426°
Eccentric anomaly
321.29601°
Mean motion
2.16478 °/min
BSTAR
-0.035659
Orbital period
166.3 mins
Loading maneuver chart data...
Loading SW <> Apogee altitude chart data...

DASH 1 Visibility forecast

Observer location: undefined°, undefined°

Span
Click to sort rows by Start time (UTC) header in descending order
Start Az.
Max El. time (UTC)
Max El. Az.
Max El.
End time (UTC)
End Az.
33 mins2025-05-09 05:48:09.403Z147.371° SSE2025-05-09 06:04:09.403Z81.27° E39.092°2025-05-09 06:21:09.403Z7.749° NNE
33 mins2025-05-09 08:35:09.403Z216.5° SW2025-05-09 08:51:09.403Z284.147° WNW35.142°2025-05-09 09:08:09.403Z355.156° N
8 mins2025-05-09 14:57:09.403Z32.696° NE2025-05-09 15:00:09.403Z42.737° NE11.131°2025-05-09 15:05:09.403Z59.347° ENE
35 mins2025-05-09 17:38:09.403Z3.866° NNE2025-05-09 17:55:09.403Z84.302° E40.848°2025-05-09 18:13:09.403Z159.962° S
31 mins2025-05-09 20:25:09.403Z348.042° N2025-05-09 20:40:09.403Z287.868° WNW33.552°2025-05-09 20:56:09.403Z226.979° WSW
21 mins2025-05-10 04:09:09.403Z95.496° ESE2025-05-10 04:19:09.403Z59.047° ENE19.701°2025-05-10 04:30:09.403Z19.472° NNE
|